Regional Weather Roundup
Issued by NWS

Home | Current Version | Previous Version | Graphics & Text | Print | Product List | Glossary On
Versions: 1 2 3 4 5 6 7 8 9 10 11 12 13 14 15 16 17 18 19 20 21 22 23 24 25 26 27 28 29 30 31 32 33 34 35 36 37 38 39 40 41 42 43 44 45 46 47 48 49 50
000
ASUS45 KABQ 220101
RWRNM
NEW MEXICO REGIONAL WEATHER ROUNDUP
NATIONAL WEATHER SERVICE ALBUQUERQUE NM
700 PM MDT FRI JUL 21 2017

NOTE: "FAIR" MEANS FEW OR NO CLOUDS BELOW 12,000 FEET AGL WITH NO
       SIGNIFICANT WEATHER OR OBSTRUCTIONS TO VISION.

      THIS PRODUCT IS RELEASED AS TWO VERSIONS.  ONE VERSION NEAR
      THE TOP OF THE HOUR CONTAINING PRELIMINARY DATA FROM ALBUQUERQUE
      AND OTHER STATIONS.  A FINAL VERSION WITH ADDITIONAL DATA IS
      ISSUED ABOUT 10 MINUTES AFTER THE HOUR.

NMZ501-503-504-510>518-220200-
NORTHWEST PLATEAU/NORTHCENTRAL MOUNTAINS

CITY           SKY/WX    TMP DP  RH WIND       PRES   REMARKS
FARMINGTON     PTSUNNY   71  61  70 W3        30.11S
LOS ALAMOS     FAIR      83  36  18 SW7       30.20F
SANTA FE       FAIR      86  49  27 SW15      30.10F
TAOS           FAIR      77  46  33 E8        30.19F
ANGEL FIRE     FAIR      71  47  43 W8        30.31S

$$
NMZ402-403-502-505>509-220200-
WESTCENTRAL MOUNTAINS/SOUTHWEST MOUNTAINS

CITY           SKY/WX    TMP DP  RH WIND       PRES   REMARKS
GALLUP         CLOUDY    70  56  61 S6        30.19S
GRANTS         PTSUNNY   77  49  37 N9        30.18S
SILVER CITY    FAIR      74  58  59 SE3       30.14S

$$
NMZ407-409-411-412-220200-
SOUTHERN DESERTS

CITY           SKY/WX    TMP DP  RH WIND       PRES   REMARKS
DEMING         FAIR      76  63  64 NW3       30.07R
LAS CRUCES     HVY RAIN  67  63  85 E8        30.10R
HOLLOMAN AFB   FAIR      85  59  40 S18       30.04S
ALAMOGORDO     FAIR      84  55  37 SW10      30.04S
T OR C         PTSUNNY   82  56  40 W10       30.07R

$$
NMZ519>523-220200-
CENTRAL VALLEYS/CENTRAL HIGHLANDS

CITY           SKY/WX    TMP DP  RH WIND       PRES   REMARKS
ALBUQUERQUE    FAIR      87  50  27 S16       30.07S
DOUBLE EAGLE   PTSUNNY   88  50  27 S16       30.11S
MORIARTY ARPT  FAIR      83  51  33 S15       30.16S
CLINES CORNERS FAIR      79  49  34 SW21      30.21R
BELEN          NOT AVBL
SOCORRO        FAIR      85  50  29 SE10      30.06R

$$
NMZ524>526-539-540-220200-
SOUTHCENTRAL MOUNTAINS

CITY           SKY/WX    TMP DP  RH WIND       PRES   REMARKS
RUIDOSO        FAIR      73  50  43 SE10      30.25R

$$
NMZ527>531-220200-
NORTHEAST HIGHLANDS/NORTHEAST PLAINS

CITY           SKY/WX    TMP DP  RH WIND       PRES   REMARKS
LAS VEGAS      FAIR      82  40  22 SE13      30.17S
RATON          FAIR      89  38  16 S20G26    30.10R
CLAYTON        FAIR      90  43  19 S18       30.04R

$$
NMZ532>537-220200-
EASTCENTRAL PLAINS

CITY           SKY/WX    TMP DP  RH WIND       PRES   REMARKS
SANTA ROSA     FAIR      90  44  20 S13       30.00S
TUCUMCARI      FAIR      96  45  17 S9        29.94S
CANNON AFB     FAIR      91  51  25 SE14      30.02R
CLOVIS AIRPORT FAIR      90  55  30 SE16      30.02S

$$
NMZ028-029-538-220200-
SOUTHEAST PLAINS

CITY           SKY/WX    TMP DP  RH WIND       PRES   REMARKS
ROSWELL        FAIR      89  56  32 SW18      29.95F
ARTESIA        FAIR      88  59  37 SW15      29.97S
CARLSBAD       FAIR      86  62  44 S15       29.95F
HOBBS          FAIR      84  59  42 S16       30.03F


$$




USA.gov is the U.S. government's official web portal to all federal, state and local government web resources and services.